GW1546 Weather Reports


Display with metric or nautical units.
time (UTC)temp
F
wind
direction
speed
MPH
gust
MPH
rain 1hr
in
rain 24hr
in
rain mn
in
humidity
%
barometer
mb
20260503204242 65 14 2.0 3.0 0.00 0.00 0.00 31 988.1
20260503203038 64 254 1.0 3.0 0.00 0.00 0.00 29 988.4
20260503202422 64 275 2.0 4.0 0.00 0.00 0.00 31 988.4
20260503201816 64 215 2.0 6.0 0.00 0.00 0.00 30 988.4
20260503201234 64 197 2.0 3.0 0.00 0.00 0.00 28 988.4
20260503200625 63 260 1.0 3.0 0.00 0.00 0.00 30 988.8
20260503200026 63 182 0.0 4.0 0.00 0.00 0.00 33 988.8
20260503195409 63 213 0.0 2.0 0.00 0.00 0.00 30 988.8
20260503194821 64 266 1.0 2.0 0.00 0.00 0.00 33 989.1
20260503194241 64 138 2.0 2.0 0.00 0.00 0.00 33 989.5
20260503193621 65 335 2.0 10.0 0.00 0.00 0.00 31 989.5
20260503193043 63 211 1.0 2.0 0.00 0.00 0.00 34 989.5
20260503192436 63 51 2.0 3.0 0.00 0.00 0.00 33 989.5
20260503191842 63 201 2.0 7.0 0.00 0.00 0.00 31 989.5
20260503191249 61 63 2.0 3.0 0.00 0.00 0.00 31 989.8
20260503190636 62 234 6.0 8.0 0.00 0.00 0.00 31 990.1
20260503190052 63 247 2.0 4.0 0.00 0.00 0.00 31 990.1
20260503185423 62 196 2.0 2.0 0.00 0.00 0.00 34 990.1
20260503184846 62 320 1.0 3.0 0.00 0.00 0.00 31 990.1
20260503184216 62 259 1.0 6.0 0.00 0.00 0.00 34 990.5
20260503183031 60 33 2.0 2.0 0.00 0.00 0.00 32 990.8
20260503182446 60 220 3.0 7.0 0.00 0.00 0.00 35 990.5
20260503181853 61 286 6.0 8.0 0.00 0.00 0.00 34 990.5
20260503181236 61 248 2.0 4.0 0.00 0.00 0.00 34 990.5
20260503180651 61 263 5.0 9.0 0.00 0.00 0.00 35 990.5
20260503180026 60 160 1.0 4.0 0.00 0.00 0.00 35 990.5
20260503175417 61 237 0.0 2.0 0.00 0.00 0.00 38 990.8
20260503174820 59 85 1.0 2.0 0.00 0.00 0.00 39 991.1
20260503174213 58 165 1.0 3.0 0.00 0.00 0.00 37 991.1
20260503173627 58 289 6.0 7.0 0.00 0.00 0.00 35 991.1
20260503173035 59 308 6.0 9.0 0.00 0.00 0.00 36 991.1
20260503172413 57 263 2.0 2.0 0.00 0.00 0.00 40 991.1
20260503171814 58 168 2.0 6.0 0.00 0.00 0.00 38 991.1
20260503171254 58 268 3.0 3.0 0.00 0.00 0.00 36 991.5
20260503150630 53 172 1.0 6.0 0.00 0.00 0.00 41 992.8
20260503130620 45 39 0.0 0.0 0.00 0.00 0.00 81 993.2
20260503110645 33 239 1.0 2.0 0.00 0.00 0.00 99 992.5
20260503081246 35 256 0.0 1.0 0.00 0.00 0.00 98 991.1
20260503072411 36 243 0.0 0.0 0.00 0.00 0.00 97 990.8
20260503071838 36 242 0.0 0.0 0.00 0.00 0.00 97 990.5
20260503071227 36 242 0.0 0.0 0.00 0.00 0.00 96 990.5
20260503070623 36 242 0.0 0.0 0.00 0.00 0.00 96 990.1
20260503054237 40 241 0.0 1.0 0.00 0.00 0.00 92 990.1
20260503053623 40 231 0.0 1.0 0.00 0.00 0.00 92 990.1
20260503053051 40 240 0.0 0.0 0.00 0.00 0.00 92 990.1
20260503052424 40 240 0.0 0.0 0.00 0.00 0.00 92 990.1
20260503051854 40 240 0.0 1.0 0.00 0.00 0.00 92 990.1
20260503051244 40 222 0.0 1.0 0.00 0.00 0.00 92 990.1
20260503050649 40 239 0.0 1.0 0.00 0.00 0.00 92 990.1
20260503050053 40 241 0.0 0.0 0.00 0.00 0.00 92 990.1
20260503045418 40 243 0.0 1.0 0.00 0.00 0.00 93 990.1
20260503044845 39 246 0.0 0.0 0.00 0.00 0.00 93 990.1
20260503044242 39 241 0.0 1.0 0.00 0.00 0.00 94 990.1
20260503043639 39 251 0.0 0.0 0.00 0.00 0.00 94 990.1
20260503043016 39 239 0.0 0.0 0.00 0.00 0.00 94 990.1
20260503042443 39 249 0.0 1.0 0.00 0.00 0.00 94 990.1
20260503041823 39 248 0.0 0.0 0.00 0.00 0.00 94 989.8
20260503040623 39 204 0.0 1.0 0.00 0.00 0.00 94 989.8
20260503040047 40 236 0.0 0.0 0.00 0.00 0.00 93 989.5
20260503035451 40 236 0.0 0.0 0.00 0.00 0.00 93 989.5
20260503034851 40 237 0.0 0.0 0.00 0.00 0.00 92 989.5
20260503034216 41 272 0.0 1.0 0.00 0.00 0.00 92 989.5
20260503033638 41 273 0.0 0.0 0.00 0.00 0.00 92 989.5
20260503032419 42 247 0.0 0.0 0.00 0.00 0.00 90 989.5
20260503031839 42 273 0.0 0.0 0.00 0.00 0.00 90 989.5
20260503031244 42 273 0.0 0.0 0.00 0.00 0.00 89 989.1
20260503030642 43 84 0.0 1.0 0.00 0.00 0.00 88 989.5
20260503030024 43 230 1.0 2.0 0.00 0.00 0.00 88 989.1
20260503025424 44 291 0.0 1.0 0.00 0.00 0.00 88 989.1
20260503024829 44 245 0.0 1.0 0.00 0.00 0.00 87 989.1
20260503024233 44 75 0.0 1.0 0.00 0.00 0.00 86 989.1
20260503023618 45 244 0.0 1.0 0.00 0.00 0.00 85 989.1
20260503023036 45 170 1.0 1.0 0.00 0.00 0.00 85 989.1
20260503022451 45 190 1.0 1.0 0.00 0.00 0.00 85 989.1
20260503021851 46 214 0.0 1.0 0.00 0.00 0.00 84 989.1
20260503021241 46 204 0.0 1.0 0.00 0.00 0.00 84 989.1
20260503020644 46 119 0.0 2.0 0.00 0.00 0.00 83 988.8
20260503020048 46 238 0.0 1.0 0.00 0.00 0.00 83 988.8
20260503014817 46 248 0.0 0.0 0.00 0.00 0.00 82 989.1
20260503014252 46 242 0.0 0.0 0.00 0.00 0.00 82 988.8
20260503013626 46 248 0.0 0.0 0.00 0.00 0.00 81 988.8
20260503013014 46 254 0.0 1.0 0.00 0.00 0.00 81 988.4
20260503011811 46 218 0.0 0.0 0.00 0.00 0.00 81 988.4
20260503011231 46 212 1.0 1.0 0.00 0.00 0.00 80 988.4
20260503010623 46 250 0.0 0.0 0.00 0.00 0.00 79 988.4
20260503010028 47 222 0.0 0.0 0.00 0.00 0.00 79 988.1
20260503005413 47 218 1.0 1.0 0.00 0.00 0.00 78 988.1
20260503004843 47 241 0.0 0.0 0.00 0.00 0.00 77 988.1
20260503004211 48 228 0.0 1.0 0.00 0.00 0.00 75 988.1
20260503003641 48 244 0.0 1.0 0.00 0.00 0.00 75 988.1
20260503003018 48 239 1.0 1.0 0.00 0.00 0.00 73 988.1
20260503001815 49 298 0.0 1.0 0.00 0.00 0.00 73 987.8
20260503001232 49 279 0.0 1.0 0.00 0.00 0.00 71 987.8
20260503000048 50 180 0.0 1.0 0.00 0.00 0.00 67 987.8
20260502235410 50 224 0.0 1.0 0.00 0.00 0.00 69 987.8
20260502234841 50 243 0.0 0.0 0.00 0.00 0.00 66 987.8
20260502234245 50 218 0.0 0.0 0.00 0.00 0.00 65 987.8
20260502233641 51 207 0.0 2.0 0.00 0.00 0.00 65 987.4
20260502232429 52 68 0.0 0.0 0.00 0.00 0.00 65 987.1
20260502231840 52 176 1.0 2.0 0.00 0.00 0.00 61 987.1
20260502231212 52 212 1.0 1.0 0.00 0.00 0.00 60 987.8
20260502230630 53 240 1.0 2.0 0.00 0.00 0.00 59 987.1
20260502230040 53 253 1.0 2.0 0.00 0.00 0.00 56 987.4
20260502225434 53 273 1.0 6.0 0.00 0.00 0.00 49 987.4
20260502224832 54 206 2.0 3.0 0.00 0.00 0.00 47 987.4
20260502224226 54 255 1.0 4.0 0.00 0.00 0.00 47 987.4
20260502223035 54 268 4.0 6.0 0.00 0.00 0.00 46 987.4
20260502222421 53 262 2.0 4.0 0.00 0.00 0.00 49 987.4
20260502221839 53 270 0.0 2.0 0.00 0.00 0.00 50 987.4
20260502221254 54 273 1.0 3.0 0.00 0.00 0.00 50 987.1
20260502220621 54 263 0.0 1.0 0.00 0.00 0.00 46 987.1
20260502220030 54 258 1.0 3.0 0.00 0.00 0.00 43 987.1
20260502215411 54 300 4.0 7.0 0.00 0.00 0.00 45 987.1
20260502214823 55 326 6.0 9.0 0.00 0.00 0.00 43 987.1
20260502213651 56 290 4.0 6.0 0.00 0.00 0.00 41 987.1
20260502213041 54 255 3.0 6.0 0.00 0.00 0.00 43 987.1
20260502212448 54 293 8.0 9.0 0.00 0.00 0.00 44 987.1
20260502211814 54 304 3.0 9.0 0.00 0.00 0.00 43 986.7
20260502211238 54 209 4.0 8.0 0.00 0.00 0.00 43 986.7
20260502210627 55 282 0.0 7.0 0.00 0.00 0.00 46 986.7
20260502210034 55 127 1.0 8.0 0.00 0.00 0.00 44 986.7
20260502205414 55 245 0.0 3.0 0.00 0.00 0.00 46 986.7